CST,Max TemperatureF,Mean TemperatureF,Min TemperatureF,Max Dew PointF,MeanDew PointF,Min DewpointF,Max Humidity, Mean Humidity, Min Humidity, Max Sea Level PressureIn, Mean Sea Level PressureIn, Min Sea Level PressureIn, Max VisibilityMiles, Mean VisibilityMiles, Min VisibilityMiles, Max Wind SpeedMPH, Mean Wind SpeedMPH, Max Gust SpeedMPH,PrecipitationIn, CloudCover, Events, WindDirDegrees
2011-12-1,32,26,19,28,17,5,87,68,44,30.44,30.34,30.14,10,10,3,12,5,17,0.00,2,Snow,350
2011-12-2,32,21,10,16,10,3,85,65,38,30.39,30.21,30.04,10,10,10,20,5,28,0.00,0,,182
2011-12-3,32,26,21,27,23,19,93,76,64,30.06,30.01,29.97,10,10,2,13,6,17,0.00,4,Snow,223
2011-12-4,30,22,14,27,16,10,93,79,68,30.30,30.12,29.94,10,10,5,14,8,20,0.00,7,Snow,328
2011-12-5,19,16,14,12,10,9,86,75,68,30.50,30.44,30.34,10,8,3,12,5,16,0.00,8,Snow,350
2011-12-6,19,10,0,9,3,-4,85,74,53,30.47,30.30,30.05,10,10,10,13,2,20,0.00,0,,201
2011-12-7,33,24,14,18,12,5,74,62,41,30.00,29.96,29.90,10,10,10,12,6,16,0.00,4,,254
2011-12-8,24,17,10,12,5,0,79,58,39,30.14,30.08,30.03,10,10,10,16,8,23,0.00,1,,270
2011-12-9,17,10,3,3,-1,-4,85,62,42,30.33,30.24,30.14,10,10,10,12,5,16,0.00,0,,262
2011-12-10,32,18,5,18,7,-4,80,63,47,30.30,30.17,30.10,10,10,10,12,6,16,0.00,2,,207
2011-12-11,41,29,17,28,21,14,93,77,49,30.05,30.00,29.98,10,8,5,16,7,23,0.00,1,,193
2011-12-12,35,34,32,34,31,28,93,88,81,30.29,30.17,30.07,7,4,2,5,1,,0.00,8,,122
2011-12-13,33,32,32,32,32,32,100,94,93,30.34,30.30,30.20,7,3,1,6,3,,0.00,8,,92
2011-12-14,33,32,32,32,32,30,100,94,93,30.10,29.84,29.65,5,2,0,6,2,,0.11,8,Fog-Rain-Snow,107
2011-12-15,33,26,19,32,21,12,100,75,55,30.24,29.90,29.64,10,9,2,29,12,38,0.00,6,Rain-Snow,303
2011-12-16,19,16,12,12,10,5,93,77,54,30.42,30.37,30.32,10,10,10,6,2,,0.00,3,,297
2011-12-17,33,22,10,25,17,5,93,78,60,30.30,30.14,30.03,10,10,7,13,3,17,0.00,4,,236
2011-12-18,42,28,15,30,23,14,93,80,57,30.09,29.82,29.63,10,10,7,14,3,20,0.00,0,,211
2011-12-19,35,30,24,30,21,16,87,70,60,30.28,30.08,29.75,10,10,10,24,11,30,0.00,7,,331
2011-12-20,32,23,14,19,16,10,86,73,51,30.25,29.94,29.69,10,10,10,16,6,21,0.00,1,,202
2011-12-21,32,24,17,28,19,14,93,81,64,30.04,29.75,29.62,10,9,1,13,3,18,0.01,5,Snow,322
2011-12-22,26,19,12,19,11,7,85,65,50,30.33,30.25,30.06,10,10,10,16,6,22,0.00,2,,334
2011-12-23,32,23,14,25,17,9,86,77,64,30.21,30.05,29.93,10,9,1,15,5,23,0.00,6,Snow,224
2011-12-24,35,20,5,25,14,1,93,76,60,30.13,30.03,29.94,10,10,10,10,2,16,0.00,1,,243
2011-12-25,37,30,24,27,23,19,86,68,56,30.24,30.13,29.92,10,10,10,21,9,26,0.00,3,,295
2011-12-26,44,34,23,27,21,18,86,58,42,30.10,29.76,29.60,10,10,10,24,9,34,0.00,1,,209
2011-12-27,37,28,19,28,16,3,75,61,47,30.03,29.90,29.65,10,10,10,23,13,32,0.00,4,,342
2011-12-28,33,24,14,19,12,5,79,63,51,30.03,29.86,29.69,10,10,5,10,3,,0.00,4,Snow,146
2011-12-29,32,26,19,30,24,16,93,85,69,29.67,29.58,29.45,10,10,3,10,4,17,0.00,4,Snow,4
2011-12-30,28,24,21,23,21,19,93,86,74,29.84,29.74,29.65,10,9,2,8,2,,0.00,8,Snow,59
2011-12-31,32,29,26,30,27,23,93,88,80,29.81,29.70,29.58,10,6,1,8,3,,0.08,8,Snow,114